Skip Page Navigation
NASA JPL Caltech
NASA Logo - Jet Propulsion Laboratory + View the NASA Portal
+ Center for Near-Earth Object Studies
JPL Home Earth Solar System Stars & Galaxies Technology
JPL Solar System Dynamics
BODIES ORBITS EPHEMERIDES TOOLS PHYSICAL DATA DISCOVERY FAQ SITE MAP
JPL Small-Body Database Browser
Search: [ help ]  
437985 (2003 SF288)
Classification: Main-belt Asteroid          SPK-ID: 2437985
Ephemeris | Orbit Diagram | Orbital Elements | Mission Design | Physical Parameters | Discovery Circumstances ]

[ show orbit diagram ]
Orbital Elements at Epoch 2459000.5 (2020-May-31.0) TDB
Reference: JPL 9 (heliocentric ecliptic J2000)
 Element Value Uncertainty (1-sigma)   Units 
e .1523058280689359 1.1916e-07  
a 2.598370325360916 3.5021e-08 au
q 2.202623381327072 3.2717e-07 au
i 11.40164784499523 7.9392e-06 deg
node 243.5342049208515 4.8356e-05 deg
peri 60.15931235030602 5.4788e-05 deg
M 55.18903680624174 2.7571e-05 deg
tp 2458765.968969250996
(2019-Oct-09.46896925)
0.00011442 TDB
period 1529.854042679946
4.19
3.0929e-05
8.468e-08
d
yr
n .2353165661276838 4.7574e-09 deg/d
Q 2.994117269394761 4.0355e-08 au
  Orbit Determination Parameters
   # obs. used (total)      110  
   data-arc span      6714 days (18.38 yr)  
   first obs. used      2001-02-20  
   last obs. used      2019-07-10  
   planetary ephem.      DE431  
   SB-pert. ephem.      SB431-N16  
   condition code      0  
   norm. resid. RMS      .54223  
   source      ORB  
   producer      Otto Matic  
   solution date      2019-Sep-24 07:38:07  

Additional Information
 Earth MOID = 1.21234 au 
 Jupiter MOID = 2.24791 au 
 T_jup = 3.372 
[ show covariance matrix ]

Ephemeris | Orbit Diagram | Orbital Elements | Mission Design | Physical Parameters | Discovery Circumstances ]

Physical Parameter Table
Parameter Symbol Value Units Sigma Reference Notes
absolute magnitude H 16.5   n/a MPO434614  

437985 (2003 SF288)          Discovered 2003-Sep-30 by Spacewatch at Kitt Peak
Reference: Last Updated: 2015-07-06

Alternate Designations
 2003 SF288 = 2007 RD150 
Ephemeris | Orbit Diagram | Orbital Elements | Mission Design | Physical Parameters | Discovery Circumstances ]
ABOUT SSD CREDITS/AWARDS PRIVACY/COPYRIGHT GLOSSARY LINKS
FirstGov 2020-Aug-08 19:32 UT
(server date/time)  
NASA Home Page
Site Manager:   Ryan S. Park
Webmaster  Alan B. Chamberlin